Home   Weather   Al-Jamiliyah   Past weeks

Flag for Qatar Past Weather in Al-Jamiliyah, Qatar — Yesterday and Last 2 Weeks

Now
88 °F

Clear.


Feels Like: 88 °F
Forecast: 79 / 94 °F
Wind: 2 mph from North

Location: Doha International Airport

Current Time: Apr 27, 2017 at 9:53:27 pm

Latest Report: Apr 27, 2017 at 9:00 pm


Visibility: 10 mi

Pressure: 29.80 "Hg

Humidity: 40%

Dew Point: 61 °F

Location of Al-JamiliyahLocation

Past Weather in Al-Jamiliyah — Graph

°F

Al-Jamiliyah Temperature Yesterday

Maximum temperature yesterday: 95 °F (at 10:00 am)
Minimum temperature yesterday: 81 °F (at 2:00 am)
Average temperature yesterday: 88 °F

High & Low Weather Summary for the Past Weeks

 TemperatureHumidityPressure
High106 °F (Apr 15, 12:00 pm)74% (Apr 13, 6:00 am)29.92 "Hg (Apr 13, 6:00 am)
Low75 °F (Apr 15, 4:00 am)10% (Apr 15, 12:00 pm)29.68 "Hg (Apr 16, 1:00 am)
Average87 °F40%29.79 "Hg
* Reported Apr 12 8:00 pm — Apr 27 8:00 pm, Al-Jamiliyah, Weather by CustomWeather, © 2017

Note: Actual official high and low records may vary slightly from our data, if they occured in-between our weather recording intervals... More about our weather records

Advertising

Al-Jamiliyah Weather History for the Previous 24 Hours

Scroll right to see more
 ConditionsComfort  
Time TempWeatherWind HumidityBarometerVisibility
8:00 pm
Thu, Apr 27
88 °FClear.2 mph46%29.80 "Hg10 mi
7:00 pm90 °FClear.7 mph43%29.77 "Hg10 mi
6:00 pm90 °FSunny.8 mph43%29.77 "Hg10 mi
5:00 pm95 °FSunny.7 mph30%29.77 "Hg10 mi
4:00 pm95 °FSunny.13 mph32%29.77 "Hg10 mi
3:00 pm95 °FSunny.15 mph34%29.77 "Hg10 mi
2:00 pm99 °FSunny.15 mph24%29.77 "Hg10 mi
1:00 pm100 °FSunny.14 mph22%29.80 "Hg10 mi
12:00 pm99 °FSunny.15 mph25%29.83 "Hg10 mi
11:00 am99 °FSunny.10 mph22%29.83 "Hg10 mi
10:00 am97 °FSunny.14 mph22%29.83 "Hg10 mi
9:00 am93 °FSunny.16 mph26%29.83 "Hg10 mi
8:00 am91 °FSunny.14 mph28%29.83 "Hg10 mi
6:00 am82 °FPassing clouds.5 mph48%29.80 "HgN/A
5:00 am82 °FPassing clouds.6 mph48%29.77 "HgN/A
4:00 am82 °FPassing clouds.7 mph45%29.77 "HgN/A
3:00 am82 °FClear.7 mph51%29.77 "Hg10 mi
2:00 am84 °FPassing clouds.5 mph43%29.77 "HgN/A
1:00 am86 °FPassing clouds.5 mph35%29.77 "HgN/A
12:00 am84 °FClear.7 mph43%29.80 "Hg10 mi
11:00 pm
Wed, Apr 26
86 °FClear.5 mph38%29.80 "Hg10 mi
9:00 pm90 °FClear.6 mph31%29.80 "Hg10 mi
Weather by CustomWeather, © 2017

See weather overviewHow to use our weather pages